Вернуться в каталог

STARLINK-3355

АктивенСвязьVLEO
NORAD 50808·PAYLOAD·🇺🇸 United States

Запущен Jan 6, 2022 с Cape Canaveral Space Force Station

Loading…

Ближайшие Пролёты (ближайшие 24 часа)

TLE

СвежийSource: CelesTrak SupGP

Эпоха: Sep 14, 2026, 21:39 UTC

1 50808C 22001F   26257.90256944 -.00013849  00000+0 -44540-3 0  2570
2 50808  53.1599  17.8258 0001212  76.4132 202.4337 15.31705241    16

Отслеживайте STARLINK-3355 в реальном времени с AllMySat

Download on the App Store